Jackson, Tennessee, United States (38301)
Lat: 35.61N, Lon: 88.81W
Wx Zone: TNZ052
Local Info
Past Weather Observations for Saturday, September 27, 2014

NOTE: This archive is for the closest National Weather Service station to Jackson. Information may differ from the station used for current weather conditions.

Click here for Long-term Archive

Time Weather Temperature Dewpoint Humidity Pressure Winds Precip Visibility
23:53
Clear
63°F / 17°C 61°F / 16°C 94% 30.12 in
(1020 mb)
Calm - 10SM
22:53
Clear
64°F / 18°C 63°F / 17°C 94% 30.12 in
(1020 mb)
Calm - 10SM
21:53
Clear
64°F / 18°C 63°F / 17°C 94% 30.12 in
(1020 mb)
Calm - 10SM
20:53
Clear
64°F / 18°C 63°F / 17°C 94% 30.09 in
(1019 mb)
Calm - 10SM
19:53
Clear
66°F / 19°C 64°F / 18°C 94% 30.09 in
(1019 mb)
Calm - 10SM
18:53
Clear
68°F / 20°C 64°F / 18°C 88% 30.09 in
(1019 mb)
Calm - 10SM
17:53
Clear
72°F / 22°C 64°F / 18°C 78% 30.06 in
(1018 mb)
Calm - 10SM
16:53
Clear
79°F / 26°C 63°F / 17°C 58% 30.06 in
(1018 mb)
Calm - 10SM
15:53
Clear
81°F / 27°C 64°F / 18°C 58% 30.09 in
(1019 mb)
Variable 4.6 mph
(Variable 7 kph)
- 10SM
14:53
Partly Cloudy
82°F / 28°C 63°F / 17°C 51% 30.09 in
(1019 mb)
SE 6.9 mph
(SE 11 kph)
- 10SM
13:53
Clear
82°F / 28°C 64°F / 18°C 55% 30.09 in
(1019 mb)
ESE 8.1 mph
(ESE 13 kph)
- 10SM
12:53
Partly Cloudy
81°F / 27°C 64°F / 18°C 58% 30.12 in
(1020 mb)
SE 4.6 mph
(SE 7 kph)
- 10SM
11:53
Partly Cloudy
81°F / 27°C 64°F / 18°C 58% 30.12 in
(1020 mb)
ESE 6.9 mph
(ESE 11 kph)
- 10SM
10:53
Mostly Cloudy
79°F / 26°C 64°F / 18°C 61% 30.15 in
(1021 mb)
Variable 4.6 mph
(Variable 7 kph)
- 10SM
09:53
Clear
77°F / 25°C 64°F / 18°C 65% 30.15 in
(1021 mb)
Variable 3.5 mph
(Variable 6 kph)
- 10SM
08:53
Clear
73°F / 23°C 64°F / 18°C 74% 30.15 in
(1021 mb)
SSE 3.5 mph
(SSE 6 kph)
- 10SM
07:53
Clear
72°F / 22°C 64°F / 18°C 78% 30.15 in
(1021 mb)
S 5.8 mph
(S 9 kph)
- 10SM
06:53
Clear
66°F / 19°C 63°F / 17°C 88% 30.15 in
(1021 mb)
SSE 3.5 mph
(SSE 6 kph)
- 9SM
05:56
Clear
63°F / 17°C 61°F / 16°C 94% 30.12 in
(1020 mb)
Calm - 9SM
05:53
Clear
Fog And Mist
63°F / 17°C 61°F / 16°C 94% 30.12 in
(1020 mb)
Calm - 1 3/4SM
05:43
Clear
Fog And Mist
61°F / 16°C 59°F / 15°C 94% 30.12 in
(1020 mb)
Calm - 1SM
05:36
Obscured
Fog And Mist
61°F / 16°C 59°F / 15°C 94% 30.12 in
(1020 mb)
Calm - 3/4SM
05:33
Partly Cloudy
Fog And Mist
61°F / 16°C 61°F / 16°C 100% 30.12 in
(1020 mb)
Calm - 1 1/2SM
05:02
Clear
Fog And Mist
63°F / 17°C 61°F / 16°C 94% 30.12 in
(1020 mb)
Calm - 3SM
04:53
Clear
Fog And Mist
61°F / 16°C 59°F / 15°C 94% 30.12 in
(1020 mb)
Calm - 1 1/4SM
04:45
Clear
Fog And Mist
63°F / 17°C 61°F / 16°C 94% 30.12 in
(1020 mb)
Calm - 1 3/4SM
04:01
Clear
64°F / 18°C 61°F / 16°C 88% 30.12 in
(1020 mb)
Calm - 8SM
03:53
Clear
Fog And Mist
63°F / 17°C 61°F / 16°C 94% 30.12 in
(1020 mb)
Calm - 2 1/2SM
03:40
Clear
Fog And Mist
63°F / 17°C 61°F / 16°C 94% 30.12 in
(1020 mb)
Calm - 1 3/4SM
02:53
Clear
64°F / 18°C 61°F / 16°C 88% 30.12 in
(1020 mb)
Calm - 10SM
01:53
Clear
64°F / 18°C 61°F / 16°C 88% 30.12 in
(1020 mb)
Calm - 10SM
00:53
Clear
64°F / 18°C 63°F / 17°C 94% 30.12 in
(1020 mb)
Calm - 10SM
Time Weather Temperature Dewpoint Humidity Pressure Winds Precip Visibility


Weather for websites

WeatherForYou.com, LLC is not responsible for any damages or problems caused by this service. Current weather conditions are obtained from the closest station including government and personal stations which may have varying degrees of accuracy. Weather forecasts are derived from the NOAA NDFD. Like all things, this site belongs to Jesus Christ... He just trusts me to maintain it. If you have any questions or comments email webmaster@weatherforyou.com

Copyright © 2014, WeatherForYou.com LLC. All rights reserved.